Location: Sobotiste
(48.7170°N, 17.4000°E)
Time: 23:34:33
(UTC+01:00)

YUBILEINY - Visible Passes

Search period start: 12 March 2026 00:00
Search period end: 22 March 2026 00:00
Orbit: 1478 x 1509 km, 82.5° (Epoch: 12 March)

Date Brightness Start Highest point End Pass type
(mag) Time Alt. Az. Time Alt. Az. Time Alt. Az.
12 Mar ? 00:38:29 10° NNE 00:41:46 12° NE 00:45:02 10° ENE visible
12 Mar ? 02:33:00 10° N 02:41:24 47° ENE 02:49:41 10° SE visible
12 Mar ? 04:30:03 10° NNW 04:38:12 47° W 04:46:19 10° SSW visible
12 Mar ? 19:39:57 10° WNW 19:43:24 13° NW 19:46:52 10° NNW visible
13 Mar ? 01:43:40 10° N 01:51:03 29° ENE 01:58:20 10° ESE visible
13 Mar ? 03:40:05 10° NNW 03:48:49 77° W 03:57:28 10° S visible
13 Mar ? 05:38:46 10° NW 05:44:05 18° WNW 05:49:24 10° WSW visible
13 Mar ? 18:46:02 10° W 18:52:19 21° NW 18:58:37 10° N visible
14 Mar ? 00:54:44 10° N 01:00:16 18° NE 01:05:45 10° E visible
14 Mar ? 02:50:22 10° N 02:59:05 67° ENE 03:07:43 10° SSE visible
14 Mar ? 04:47:55 10° NNW 04:55:16 32° W 05:02:35 10° SW visible
15 Mar ? 00:07:41 10° NNE 00:09:01 10° NE 00:10:23 10° NE visible
15 Mar ? 02:00:52 10° N 02:09:01 41° ENE 02:17:04 10° SE visible
15 Mar ? 03:57:43 10° NNW 04:06:07 54° W 04:14:26 10° SSW visible
15 Mar ? 19:06:11 10° WNW 19:10:42 15° NW 19:15:15 10° NNW visible
16 Mar ? 01:11:37 10° N 01:18:32 25° ENE 01:25:24 10° ESE visible
16 Mar ? 03:07:50 10° N 03:16:37 88° W 03:25:19 10° S visible
16 Mar ? 05:06:05 10° NNW 05:12:10 22° WNW 05:18:14 10° WSW visible
16 Mar ? 18:12:57 10° WSW 18:19:46 24° WNW 18:26:36 10° N visible
17 Mar ? 00:22:55 10° NNE 00:27:38 15° NE 00:32:18 10° E visible
17 Mar ? 02:18:11 10° N 02:26:48 58° ENE 02:35:18 10° SSE visible
17 Mar ? 04:15:29 10° NNW 04:23:14 38° W 04:30:57 10° SSW visible
18 Mar ? 01:28:44 10° N 01:36:35 35° ENE 01:44:21 10° SE visible
18 Mar ? 03:25:24 10° NNW 03:33:59 64° W 03:42:05 12° S visible
18 Mar ? 05:24:58 10° NW 05:28:53 14° WNW 05:32:48 10° W visible
18 Mar ? 18:32:42 10° W 18:38:04 17° NW 18:43:26 10° NNW visible
19 Mar ? 00:39:36 10° N 00:45:59 22° NE 00:52:18 10° ESE visible
19 Mar ? 02:35:36 10° N 02:44:23 81° E 02:50:57 20° SSE visible
19 Mar ? 04:33:30 10° NNW 04:40:12 26° WNW 04:46:44 10° SW visible
19 Mar ? 23:51:16 10° NNE 23:54:56 13° NE 23:58:36 10° ENE visible
20 Mar ? 01:46:01 10° N 01:54:27 50° ENE 02:00:30 20° SE visible
20 Mar ? 03:43:07 10° NNW 03:51:10 44° W 03:56:19 22° SW visible
20 Mar ? 18:53:38 10° WNW 18:56:35 12° NW 18:59:32 10° NNW visible
21 Mar ? 00:56:39 10° N 01:04:08 30° ENE 01:10:20 14° ESE visible
21 Mar ? 02:53:07 10° NNW 03:01:49 74° W 03:06:10 34° S visible
21 Mar ? 04:51:59 10° NW 04:57:00 17° WNW 05:02:01 10° WSW visible
